When you browse on this site, cookies collect data to enhance your experience and personalize the content and advertising you see.
Visit our Privacy Policy to learn more. By continuing to use the site, you agree to this use of cookies and data.
  • In Switzerland
  • List of Countries
  • For 7 days
  • Water Temperature
  • Weather Map
  • Weather Widgets
  • user-avatar
    Login

    Hourly Weather Batina

    Today, 7 June, Sunday

    Time Temperature Precipitation Wind Pressure Humidity
    00:00 +23°C° 0 mm 2 mps 668 mmHg 29%
    01:00 +24°C° 0 mm 2 mps 667 mmHg 30%
    02:00 +24°C° 0 mm 2 mps 667 mmHg 30%
    03:00 +24°C° 0 mm 2 mps 667 mmHg 31%
    04:00 +24°C° 0.1 mm 2 mps 667 mmHg 32%
    05:00 +24°C° 0.1 mm 2 mps 667 mmHg 34%
    06:00 +25°C° 0.1 mm 2 mps 668 mmHg 35%
    07:00 +25°C° 0.1 mm 2 mps 668 mmHg 34%
    08:00 +26°C° 0.1 mm 2 mps 669 mmHg 33%
    09:00 +27°C° 0.1 mm 3 mps 669 mmHg 32%
    10:00 +28°C° 0 mm 3 mps 669 mmHg 31%
    11:00 +29°C° 0 mm 4 mps 669 mmHg 29%
    12:00 +30°C° 0 mm 4 mps 669 mmHg 28%
    13:00 +30°C° 0 mm 5 mps 669 mmHg 29%
    14:00 +29°C° 0 mm 5 mps 669 mmHg 31%
    15:00 +29°C° 0 mm 5 mps 668 mmHg 32%
    16:00 +27°C° 0 mm 5 mps 668 mmHg 37%
    17:00 +26°C° 0 mm 4 mps 668 mmHg 43%
    18:00 +23°C° 0 mm 4 mps 668 mmHg 48%
    19:00 +22°C° 0 mm 4 mps 668 mmHg 51%
    20:00 +22°C° 0 mm 3 mps 669 mmHg 54%
    21:00 +21°C° 0 mm 3 mps 669 mmHg 57%
    22:00 +20°C° 0 mm 2 mps 669 mmHg 59%
    23:00 +20°C° 0 mm 2 mps 669 mmHg 61%

    Tomorrow, 8 June, Monday

    Time Temperature Precipitation Wind Pressure Humidity
    00:00 +19°C° 0 mm 2 mps 668 mmHg 63%
    01:00 +20°C° 0 mm 1 mps 668 mmHg 64%
    02:00 +19°C° 0 mm 1 mps 668 mmHg 65%
    03:00 +19°C° 0 mm 1 mps 667 mmHg 66%
    04:00 +19°C° 0 mm 1 mps 667 mmHg 59%
    05:00 +20°C° 0 mm 1 mps 668 mmHg 52%
    06:00 +21°C° 0 mm 1 mps 668 mmHg 46%
    07:00 +21°C° 0 mm 2 mps 669 mmHg 41%
    08:00 +24°C° 0 mm 2 mps 669 mmHg 36%
    09:00 +25°C° 0 mm 3 mps 670 mmHg 31%
    10:00 +26°C° 0.1 mm 4 mps 670 mmHg 30%
    11:00 +27°C° 0.1 mm 4 mps 670 mmHg 29%
    12:00 +27°C° 0.1 mm 5 mps 670 mmHg 27%
    13:00 +27°C° 0 mm 6 mps 669 mmHg 28%
    14:00 +27°C° 0 mm 6 mps 669 mmHg 29%
    15:00 +27°C° 0 mm 7 mps 669 mmHg 30%
    16:00 +26°C° 0 mm 6 mps 669 mmHg 32%
    17:00 +26°C° 0 mm 5 mps 669 mmHg 34%
    18:00 +25°C° 0 mm 5 mps 669 mmHg 36%
    19:00 +22°C° 0.2 mm 4 mps 669 mmHg 45%
    20:00 +21°C° 0.2 mm 3 mps 669 mmHg 53%
    21:00 +20°C° 0.2 mm 2 mps 669 mmHg 61%
    22:00 +19°C° 0.2 mm 2 mps 669 mmHg 67%
    23:00 +18°C° 0.2 mm 2 mps 668 mmHg 73%

    Day after tomorrow, 9 June, Tuesday

    Time Temperature Precipitation Wind Pressure Humidity
    00:00 +17°C° 0.2 mm 2 mps 668 mmHg 79%
    01:00 +17°C° 0.2 mm 2 mps 668 mmHg 78%
    02:00 +18°C° 0.2 mm 1 mps 668 mmHg 77%
    03:00 +18°C° 0.2 mm 1 mps 668 mmHg 77%
    04:00 +18°C° 0 mm 1 mps 668 mmHg 72%
    05:00 +19°C° 0 mm 1 mps 669 mmHg 68%
    06:00 +19°C° 0 mm 1 mps 669 mmHg 64%
    07:00 +20°C° 0 mm 1 mps 669 mmHg 57%
    08:00 +21°C° 0 mm 2 mps 670 mmHg 49%
    09:00 +23°C° 0 mm 2 mps 670 mmHg 42%
    10:00 +24°C° 0 mm 3 mps 670 mmHg 37%
    11:00 +25°C° 0 mm 4 mps 671 mmHg 32%
    12:00 +26°C° 0 mm 4 mps 671 mmHg 26%
    13:00 +27°C° 0 mm 5 mps 671 mmHg 24%
    14:00 +27°C° 0 mm 5 mps 670 mmHg 22%
    15:00 +27°C° 0 mm 5 mps 670 mmHg 20%
    16:00 +26°C° 0.1 mm 5 mps 670 mmHg 27%
    17:00 +25°C° 0.1 mm 5 mps 670 mmHg 34%
    18:00 +22°C° 0.1 mm 5 mps 670 mmHg 41%
    19:00 +21°C° 0.4 mm 4 mps 670 mmHg 52%
    20:00 +19°C° 0.4 mm 4 mps 670 mmHg 62%
    21:00 +18°C° 0.4 mm 3 mps 671 mmHg 73%
    22:00 +18°C° 0.1 mm 3 mps 671 mmHg 74%
    23:00 +18°C° 0.1 mm 3 mps 671 mmHg 75%

    10 June, Wednesday

    Time Temperature Precipitation Wind Pressure Humidity
    00:00 +17°C° 0.1 mm 2 mps 671 mmHg 76%
    01:00 +17°C° 0.3 mm 2 mps 670 mmHg 75%
    02:00 +18°C° 0.3 mm 1 mps 670 mmHg 73%
    03:00 +18°C° 0.3 mm 1 mps 670 mmHg 71%
    04:00 +18°C° 0 mm 1 mps 670 mmHg 69%
    05:00 +19°C° 0 mm 1 mps 670 mmHg 67%
    06:00 +19°C° 0 mm 1 mps 670 mmHg 65%
    07:00 +19°C° 0 mm 2 mps 671 mmHg 58%
    08:00 +20°C° 0 mm 3 mps 671 mmHg 52%
    09:00 +22°C° 0 mm 3 mps 672 mmHg 45%
    10:00 +23°C° 0 mm 4 mps 672 mmHg 42%
    11:00 +25°C° 0 mm 5 mps 672 mmHg 38%
    12:00 +26°C° 0 mm 6 mps 672 mmHg 35%
    13:00 +26°C° 0 mm 7 mps 672 mmHg 33%
    14:00 +26°C° 0 mm 7 mps 672 mmHg 32%
    15:00 +27°C° 0 mm 7 mps 671 mmHg 31%
    16:00 +26°C° 0.2 mm 6 mps 671 mmHg 35%
    17:00 +23°C° 0.2 mm 6 mps 671 mmHg 39%
    18:00 +22°C° 0.2 mm 5 mps 670 mmHg 44%
    19:00 +21°C° 0.1 mm 4 mps 671 mmHg 49%
    20:00 +20°C° 0.1 mm 3 mps 671 mmHg 55%
    21:00 +19°C° 0.1 mm 2 mps 671 mmHg 60%
    22:00 +19°C° 0.1 mm 2 mps 671 mmHg 62%
    23:00 +20°C° 0.1 mm 1 mps 670 mmHg 63%

    11 June, Thursday

    Time Temperature Precipitation Wind Pressure Humidity
    00:00 +19°C° 0.1 mm 1 mps 670 mmHg 65%
    01:00 +19°C° 0.1 mm 1 mps 670 mmHg 66%
    02:00 +19°C° 0.1 mm 1 mps 669 mmHg 67%
    03:00 +17°C° 0.1 mm 2 mps 669 mmHg 68%
    04:00 +18°C° 0 mm 2 mps 669 mmHg 66%
    05:00 +18°C° 0 mm 2 mps 670 mmHg 64%
    06:00 +19°C° 0 mm 3 mps 670 mmHg 62%
    07:00 +20°C° 0 mm 3 mps 670 mmHg 56%
    08:00 +21°C° 0 mm 4 mps 671 mmHg 50%
    09:00 +23°C° 0 mm 5 mps 671 mmHg 44%
    10:00 +25°C° 0 mm 5 mps 671 mmHg 39%
    11:00 +26°C° 0 mm 6 mps 671 mmHg 34%
    12:00 +27°C° 0 mm 6 mps 671 mmHg 29%
    13:00 +27°C° 0 mm 6 mps 671 mmHg 27%
    14:00 +28°C° 0 mm 6 mps 670 mmHg 24%
    15:00 +28°C° 0 mm 7 mps 670 mmHg 22%
    16:00 +28°C° 0 mm 6 mps 670 mmHg 25%
    17:00 +27°C° 0 mm 5 mps 669 mmHg 28%
    18:00 +26°C° 0 mm 5 mps 669 mmHg 30%
    19:00 +25°C° 0 mm 4 mps 669 mmHg 36%
    20:00 +24°C° 0 mm 2 mps 669 mmHg 41%
    21:00 +23°C° 0 mm 1 mps 669 mmHg 47%
    22:00 +23°C° 0 mm 1 mps 669 mmHg 49%
    23:00 +22°C° 0 mm 1 mps 668 mmHg 50%

    12 June, Friday

    Time Temperature Precipitation Wind Pressure Humidity
    00:00 +22°C° 0 mm 1 mps 668 mmHg 52%
    01:00 +22°C° 0 mm 1 mps 668 mmHg 52%
    02:00 +22°C° 0 mm 1 mps 667 mmHg 53%
    03:00 +22°C° 0 mm 1 mps 667 mmHg 53%
    04:00 +22°C° 0 mm 1 mps 668 mmHg 52%
    05:00 +23°C° 0 mm 2 mps 668 mmHg 50%
    06:00 +23°C° 0 mm 2 mps 669 mmHg 49%
    07:00 +25°C° 0 mm 3 mps 669 mmHg 45%
    08:00 +26°C° 0 mm 4 mps 670 mmHg 41%
    09:00 +27°C° 0 mm 6 mps 670 mmHg 36%
    10:00 +28°C° 0 mm 6 mps 670 mmHg 34%
    11:00 +29°C° 0 mm 7 mps 670 mmHg 32%
    12:00 +30°C° 0 mm 7 mps 670 mmHg 30%
    13:00 +31°C° 0 mm 8 mps 670 mmHg 30%
    14:00 +31°C° 0 mm 8 mps 670 mmHg 29%
    15:00 +31°C° 0 mm 8 mps 670 mmHg 29%
    16:00 +30°C° 0 mm 6 mps 669 mmHg 30%
    17:00 +29°C° 0 mm 4 mps 669 mmHg 32%
    18:00 +28°C° 0 mm 3 mps 669 mmHg 33%
    19:00 +26°C° 0 mm 3 mps 669 mmHg 38%
    20:00 +24°C° 0 mm 3 mps 669 mmHg 43%
    21:00 +21°C° 0 mm 3 mps 669 mmHg 47%
    22:00 +20°C° 0 mm 3 mps 669 mmHg 50%
    23:00 +19°C° 0 mm 3 mps 669 mmHg 53%
    Show more